Simultaneous Nadir Overpasses (SNOs) Predictions

Prediction of SNOs between GOES-16 and METOP-B Satellite Orbit:

Table of predicted SNOs for the next 14.0 days since TLE Epoch: 10/7/2023
Index Date Time (GOES-16) GOES-16 Lat,Lon METOP-B Lat,Lon Distance(km) Time Diff (sec)
1 10/07/2023 14:25:17 -0.04, -75.22 -0.33, -73.99 141.17 80
2 10/09/2023 02:41:36 0.04, -75.21 -0.68, -78.59 384.48 80
3 10/10/2023 02:23:35 0.04, -75.21 0.42, -73.59 185.55 80
4 10/11/2023 14:42:26 -0.04, -75.25 0.59, -78.15 330.09 80
5 10/12/2023 14:19:05 -0.04, -75.26 -0.52, -73.16 240.39 80
6 10/14/2023 02:40:44 0.04, -75.26 -0.53, -77.75 283.80 80
7 10/15/2023 02:17:23 0.04, -75.27 0.59, -72.75 286.97 80
8 10/16/2023 14:38:53 -0.04, -75.32 0.40, -77.32 227.72 80
9 10/17/2023 14:15:33 -0.03, -75.33 -0.72, -72.32 343.19 80
10 10/19/2023 02:37:11 0.03, -75.33 -0.31, -76.91 180.56 80
11 10/20/2023 02:13:51 0.03, -75.34 0.82, -71.92 390.42 80
